Location: Unspecified
(0.0000°N, 0.0000°E)
Time: 19:46:19
(UTC+00:00)

Envisat - Pass Details

Date: 27 June 2017
Orbit: 764 x 766 km, 98.2° (Epoch: 17 December)

Event Time Altitude Azimuth Distance (km) Brightness Sun altitude
Exits shadow 19:50:14 18° 39° (NE) 1,784 4.7 -24.4°
Drops below altitude 10° 19:52:01 10° 23° (NNE) 2,294 5.5 -24.8°
Sets 19:54:39 0° 10° (N) 3,217 6.4 -25.4°
